EW8836 Weather Reports


Display with metric or nautical units.
time (UTC)temp
F
wind
direction
speed
MPH
gust
MPH
rain 1hr
in
rain 24hr
in
rain mn
in
humidity
%
barometer
mb
20260507164604 61 54 0.0 4.0 0.00 0.02 0.01 64 1012.2
20260507163105 62 40 2.0 6.0 0.00 0.02 0.01 64 1012.2
20260507161546 64 13 1.0 7.0 0.00 0.02 0.01 63 1012.3
20260507160052 64 335 0.0 4.0 0.00 0.02 0.01 64 1012.2
20260507154552 64 23 2.0 6.0 0.00 0.09 0.01 64 1012.3
20260507153100 63 359 3.0 7.0 0.00 0.09 0.01 65 1012.3
20260507151551 63 62 1.0 6.0 0.00 0.09 0.01 66 1012.5
20260507150104 62 59 1.0 4.0 0.00 0.09 0.01 66 1012.7
20260507144606 62 44 0.0 5.0 0.00 0.16 0.01 67 1012.9
20260507143107 62 44 2.0 6.0 0.00 0.16 0.01 65 1013.0
20260507141632 63 44 0.0 4.0 0.00 0.16 0.01 67 1013.0
20260507140046 63 26 1.0 5.0 0.00 0.16 0.01 66 1013.1
20260507134559 63 44 2.0 6.0 0.00 0.20 0.01 65 1013.2
20260507133053 62 32 1.0 5.0 0.00 0.20 0.01 65 1013.3
20260507131636 63 49 1.0 5.0 0.00 0.20 0.01 68 1013.3
20260507130104 62 65 1.0 6.0 0.00 0.20 0.01 67 1013.3
20260507124608 62 30 1.0 7.0 0.00 0.20 0.01 65 1013.3
20260507123106 63 72 2.0 7.0 0.00 0.20 0.01 68 1013.4
20260507121609 61 44 2.0 4.0 0.00 0.20 0.01 67 1013.6
20260507114600 61 137 0.0 4.0 0.00 0.20 0.01 67 1013.7
20260507113104 61 27 1.0 7.0 0.00 0.20 0.01 66 1013.7
20260507111559 60 83 1.0 3.0 0.00 0.20 0.01 70 1013.7
20260507110108 60 50 1.0 4.0 0.00 0.20 0.01 71 1013.7
20260507104602 59 311 0.0 3.0 0.00 0.20 0.01 73 1014.0
20260507103102 60 75 1.0 7.0 0.00 0.20 0.01 74 1014.0
20260507101550 60 339 0.0 3.0 0.00 0.20 0.01 74 1014.1
20260507100048 59 45 1.0 5.0 0.00 0.20 0.01 71 1014.0
20260507094608 60 70 2.0 6.0 0.00 0.20 0.01 72 1014.1
20260507093014 60 53 1.0 4.0 0.00 0.20 0.01 76 1014.2
20260507091640 58 73 0.0 5.0 0.00 0.20 0.01 79 1014.2
20260507090106 58 319 0.0 3.0 0.00 0.20 0.01 83 1014.1
20260507084553 57 34 0.0 3.0 0.00 0.20 0.01 86 1014.0
20260507083143 56 38 0.0 2.0 0.00 0.20 0.01 89 1014.0
20260507081609 55 318 0.0 2.0 0.00 0.20 0.01 92 1014.0
20260507080053 55 276 0.0 3.0 0.00 0.20 0.01 90 1014.1
20260507074551 55 352 0.0 1.0 0.00 0.20 0.01 93 1014.0
20260507073106 54 149 0.0 3.0 0.00 0.20 0.01 96 1014.0
20260507071604 52 5 0.0 1.0 0.00 0.20 0.01 97 1014.1
20260507070101 51 349 0.0 1.0 0.00 0.20 0.01 97 1014.0
20260507064605 51 295 0.0 1.0 0.00 0.20 0.01 98 1013.9
20260507063104 50 34 0.0 1.0 0.00 0.20 0.01 99 1013.9
20260507061524 50 41 0.0 1.0 0.00 0.20 0.01 98 1013.7
20260507060106 49 4 0.0 0.0 0.00 0.20 0.01 99 1013.7
20260507054547 49 4 0.0 1.0 0.00 0.20 0.01 99 1013.7
20260507053052 48 4 0.0 0.0 0.00 0.20 0.01 99 1013.3
20260507051603 48 4 0.0 0.0 0.00 0.20 0.01 99 1013.2
20260507050141 48 4 0.0 0.0 0.00 0.20 0.01 99 1013.2
20260507044605 48 4 0.0 0.0 0.00 0.20 0.01 99 1013.0
20260507043046 48 4 0.0 0.0 0.00 0.20 0.01 99 1013.1
20260507041550 47 4 0.0 0.0 0.00 0.20 0.01 98 1013.0
20260507040106 47 4 0.0 0.0 0.00 0.20 0.01 98 1013.0
20260507034605 48 11 0.0 1.0 0.00 0.20 0.01 98 1013.0
20260507033142 48 15 0.0 0.0 0.00 0.20 0.01 98 1013.2
20260507031600 48 15 0.0 0.0 0.01 0.20 0.01 98 1013.0
20260507030052 48 15 0.0 0.0 0.01 0.20 0.01 98 1013.0
20260507024601 48 15 0.0 0.0 0.01 0.20 0.01 98 1013.0
20260507023106 48 15 0.0 0.0 0.01 0.20 0.01 98 1013.0
20260507021558 48 15 0.0 0.0 0.00 0.19 0.00 98 1013.0
20260507014559 48 15 0.0 0.0 0.00 0.19 0.00 98 1012.9
20260507013104 48 15 0.0 0.0 0.00 0.19 0.00 98 1012.9
20260507011550 48 15 0.0 0.0 0.00 0.19 0.00 98 1013.0
20260507010113 48 15 0.0 0.0 0.00 0.19 0.00 98 1012.8
20260507004546 48 15 0.0 0.0 0.00 0.19 0.00 98 1012.9
20260507003059 48 15 0.0 0.0 0.00 0.19 0.00 97 1012.9
20260507001603 48 16 0.0 0.0 0.00 0.19 0.00 97 1012.9
20260507000051 48 16 0.0 0.0 0.00 0.19 0.00 97 1012.8
20260506234550 48 16 0.0 0.0 0.00 0.19 0.00 97 1012.9
20260506233103 49 16 0.0 0.0 0.00 0.19 0.00 97 1012.9
20260506231559 49 16 0.0 0.0 0.00 0.19 0.00 97 1012.8
20260506230050 49 16 0.0 0.0 0.00 0.19 0.00 97 1012.8
20260506224604 49 15 0.0 0.0 0.00 0.19 0.00 96 1012.6
20260506223103 49 16 0.0 0.0 0.00 0.19 0.00 96 1012.5
20260506221554 50 16 0.0 0.0 0.00 0.19 0.00 96 1012.4
20260506220002 50 16 0.0 0.0 0.00 0.19 0.00 96 1012.3
20260506214544 50 16 0.0 0.0 0.00 0.19 0.19 96 1012.4
20260506213055 50 1 0.0 1.0 0.00 0.19 0.19 96 1012.2
20260506211600 50 68 0.0 1.0 0.00 0.19 0.19 96 1012.2
20260506204611 51 242 0.0 0.0 0.02 0.19 0.19 96 1012.1
20260506203052 51 242 0.0 1.0 0.02 0.19 0.19 96 1012.0
20260506201601 51 247 0.0 1.0 0.02 0.19 0.19 96 1011.8
20260506200058 51 243 0.0 2.0 0.01 0.18 0.18 95 1011.6
20260506194548 51 225 0.0 0.0 0.00 0.17 0.17 94 1011.4
20260506193105 52 225 0.0 0.0 0.00 0.17 0.17 93 1011.2
20260506191546 52 225 0.0 0.0 0.00 0.17 0.17 93 1011.1
20260506190108 53 225 0.0 0.0 0.00 0.17 0.17 92 1010.8
20260506184604 53 225 0.0 0.0 0.00 0.17 0.17 91 1010.6
20260506183102 54 225 0.0 1.0 0.00 0.17 0.17 91 1010.5
20260506181552 54 84 0.0 1.0 0.00 0.17 0.17 90 1010.5
20260506180105 54 343 0.0 1.0 0.00 0.17 0.17 90 1010.2
20260506174559 54 77 0.0 1.0 0.00 0.17 0.17 92 1010.0
20260506173127 54 87 0.0 2.0 0.00 0.17 0.17 92 1009.9
20260506171549 55 72 0.0 2.0 0.00 0.17 0.17 92 1009.9
20260506170105 55 272 0.0 1.0 0.00 0.17 0.17 91 1009.8